Location: Edinburgh
(55.9500°N, 3.1600°W)
Time: 23:30:50
(UTC+00:00)

Vanguard 2 Rocket - All Passes

Search period start: 23 January 2018 00:00
Search period end: 02 February 2018 00:00
Orbit: 556 x 3326 km, 32.9° (Epoch: 22 January)

Date Brightness Start Highest point End Pass type
(mag) Time Alt. Az. Time Alt. Az. Time Alt. Az.
23 Jan - 06:47:06 10° S 06:49:13 11° SSE 06:51:10 10° SSE visible
23 Jan - 08:58:21 10° SSW 09:01:30 12° S 09:04:13 10° SSE daylight
24 Jan - 07:57:24 10° SSW 08:02:23 14° S 08:06:23 10° SSE daylight
25 Jan - 06:56:52 10° SSW 07:03:03 15° S 07:07:57 10° SE visible
25 Jan - 09:11:05 10° SW 09:15:18 13° SSW 09:18:44 10° SSE daylight
26 Jan - 05:56:45 10° SSW 06:03:30 15° SSE 06:08:57 10° SE visible
26 Jan - 08:09:43 10° SW 08:16:11 17° S 08:21:06 10° SSE daylight
27 Jan - 04:57:19 10° S 05:03:48 14° SSE 05:09:13 10° SE visible
27 Jan - 07:08:39 10° SW 07:16:50 19° S 07:22:54 10° SE visible
27 Jan - 09:24:31 10° SW 09:28:57 14° SSW 09:32:34 10° S daylight
28 Jan - 03:59:15 10° SSE 04:03:58 12° SSE 04:08:12 10° SE visible
28 Jan - 06:07:53 10° SSW 06:17:15 19° S 06:24:15 10° SE visible
28 Jan - 08:22:40 10° SW 08:29:53 18° SSW 08:35:16 10° SSE daylight
29 Jan - 05:07:31 10° SSW 05:17:26 19° SSE 05:25:06 10° SE visible
29 Jan - 07:21:11 10° SW 07:30:32 21° S 07:37:17 10° SE visible
29 Jan - 09:38:35 10° SW 09:42:27 13° SSW 09:45:43 10° S daylight
30 Jan - 04:07:48 10° S 04:17:28 17° SSE 04:25:21 10° ESE visible
30 Jan - 06:19:57 10° SW 06:30:55 23° S 06:38:50 10° SE visible
30 Jan - 08:36:03 10° WSW 08:43:27 18° SSW 08:49:00 10° SSE daylight
31 Jan - 03:09:07 10° S 03:17:25 15° SSE 03:24:38 10° ESE visible
31 Jan - 05:19:02 10° SW 05:31:03 23° S 05:39:57 10° SE visible
31 Jan - 07:34:10 10° SW 07:44:08 22° SSW 07:51:17 10° SSE visible
31 Jan - 09:54:01 10° SW 09:55:47 11° SW 09:57:25 10° SSW daylight
01 Feb - 02:12:43 10° SSE 02:17:24 11° SE 02:21:48 10° SE visible
01 Feb - 04:18:36 10° SSW 04:30:58 22° SSE 04:40:35 10° ESE visible
01 Feb - 06:32:34 10° SW 06:44:31 25° S 06:53:00 10° SE visible
01 Feb - 08:49:53 10° WSW 08:56:51 16° SSW 09:02:15 10° S daylight
